IK5NLA Vaiano IT current weather conditions

sailwx.info

Wind from 308 at 3 knots

Air temperature 16.7° C
Dewpoint 14.7° C

Last reported at 2017-Jul-27 03:56 UTC.
Time now 2017-Jul-27 04:41 UTC

Location: N 43°58' E 011°06'.
View on Google Maps.

See reports from other nearby stations

  
Tides and Currents Weather Stations Pressure Air Temp Water Temp Dewpoint Dewpoint Depression Visibility Wind Speed Wind Dir Waves Ship Positions
date/time (UTC)wind fromknots sea level pressurealtimeterstation pressurevisibilityair tempwater tempwave heightnotes
2017-Jul-27 03:56 308 3 16.7
2017-Jul-27 03:46 317 3 16.7
2017-Jul-27 03:41 312 2 16.7
2017-Jul-27 03:31 304 1 17.2
2017-Jul-27 03:26 296 2 16.7
2017-Jul-27 03:11 294 3 16.7
2017-Jul-27 03:06 302 3 16.7
2017-Jul-27 02:56 304 2 17.2
2017-Jul-27 02:46 360 2 17.2
2017-Jul-27 02:36 317 2 17.2
2017-Jul-27 02:06 307 4 16.7
2017-Jul-27 02:01 360 4 16.7
2017-Jul-27 01:56 311 3 16.7
2017-Jul-27 01:46 331 2 17.2
2017-Jul-27 01:11 317 2 16.7
2017-Jul-27 01:06 305 2 16.7
2017-Jul-27 01:01 317 1 16.7
2017-Jul-27 00:56 309 0 17.2
2017-Jul-27 00:46 308 17.2
2017-Jul-27 00:36 308 17.2
2017-Jul-27 00:31 307 0 17.2
2017-Jul-27 00:26 308 0 17.8
2017-Jul-27 00:21 308 0 17.8
2017-Jul-27 00:16 309 0 17.8
2017-Jul-27 00:06 309 1 17.8
2017-Jul-27 00:01 308 2 17.8
2017-Jul-26 23:56 309 2 17.8
2017-Jul-26 23:51 317 1 17.8
2017-Jul-26 23:46 317 17.8
2017-Jul-26 23:31 317 1 17.8
2017-Jul-26 23:26 317 1 17.8
2017-Jul-26 23:16 318 1 17.8
2017-Jul-26 23:06 319 2 17.8
2017-Jul-26 23:01 320 2 17.8
2017-Jul-26 22:46 326 1 17.8
2017-Jul-26 22:41 327 0 17.8
2017-Jul-26 22:31 327 0 17.8
2017-Jul-26 22:26 327 17.8
2017-Jul-26 22:21 327 18.3
2017-Jul-26 22:11 327 17.8
2017-Jul-26 21:56 327 0 17.8
2017-Jul-26 21:46 327 0 17.8
2017-Jul-26 21:41 327 0 17.8
2017-Jul-26 21:36 327 0 17.8
2017-Jul-26 21:26 327 18.3
2017-Jul-26 21:21 327 18.3
2017-Jul-26 21:16 327 18.3
2017-Jul-26 21:11 327 18.3
2017-Jul-26 21:06 327 18.3
2017-Jul-26 20:51 327 18.3
2017-Jul-26 20:46 327 18.9
2017-Jul-26 20:31 327 18.9
2017-Jul-26 20:21 327 18.9
2017-Jul-26 20:06 327 19.4
2017-Jul-26 19:56 327 0 19.4
2017-Jul-26 19:41 329 19.4
2017-Jul-26 19:36 329 20.0
2017-Jul-26 19:31 329 0 20.0
2017-Jul-26 19:26 329 0 20.0
2017-Jul-26 19:21 330 0 20.0
2017-Jul-26 19:16 333 0 20.0
2017-Jul-26 18:56 360 20.6
2017-Jul-26 18:36 360 20.6
2017-Jul-26 18:31 360 0 20.6
2017-Jul-26 18:26 360 0 21.1
2017-Jul-26 18:21 286 0 21.1
2017-Jul-26 18:16 286 0 21.1
2017-Jul-26 18:01 299 0 21.7
2017-Jul-26 17:56 299 1 21.7
2017-Jul-26 17:51 360 0 21.7
2017-Jul-26 17:31 263 1 21.7
2017-Jul-26 17:26 327 0 21.7
2017-Jul-26 17:21 360 0 21.7
2017-Jul-26 17:16 360 0 21.7
2017-Jul-26 17:11 360 2 21.7
2017-Jul-26 17:06 302 2 21.7
2017-Jul-26 16:56 360 6 22.2
2017-Jul-26 16:51 248 7 22.2
2017-Jul-26 16:41 360 9 22.2
2017-Jul-26 16:31 360 9 22.2
2017-Jul-26 16:26 360 7 22.2
2017-Jul-26 16:16 257 8 22.8
2017-Jul-26 16:11 246 10 22.8
2017-Jul-26 16:01 360 8 23.3
2017-Jul-26 15:56 360 7 23.3
2017-Jul-26 15:51 360 6 23.3
2017-Jul-26 15:26 360 6 23.3
2017-Jul-26 15:21 360 7 23.3
2017-Jul-26 15:16 254 7 22.8
2017-Jul-26 15:06 264 7 23.3
2017-Jul-26 14:56 360 6 22.8
2017-Jul-26 14:51 254 5 22.8
2017-Jul-26 14:46 263 4 22.8
2017-Jul-26 14:31 360 7 22.2
2017-Jul-26 14:26 248 9 22.2
2017-Jul-26 13:56 270 4 22.2
2017-Jul-26 13:46 302 2 21.1
2017-Jul-26 13:41 298 5 20.0
2017-Jul-26 13:31 302 4 20.0
2017-Jul-26 13:26 360 5 21.1
2017-Jul-26 13:21 024 3 22.2
2017-Jul-26 13:06 288 6 22.8
2017-Jul-26 12:51 238 9 23.3
2017-Jul-26 12:46 227 9 22.8
2017-Jul-26 12:41 249 9 23.3
2017-Jul-26 12:36 360 8 22.8
2017-Jul-26 12:31 269 6 22.8
2017-Jul-26 12:21 257 6 23.3
2017-Jul-26 12:16 232 6 23.3
2017-Jul-26 12:11 240 6 23.9
2017-Jul-26 12:01 239 8 23.9
2017-Jul-26 11:41 198 7 23.3
2017-Jul-26 11:31 360 7 22.8
2017-Jul-26 11:26 360 8 22.2
2017-Jul-26 11:21 268 8 22.2
2017-Jul-26 11:06 227 6 22.8
2017-Jul-26 10:56 360 8 22.8
2017-Jul-26 10:41 219 7 22.2
2017-Jul-26 10:36 237 7 22.2
2017-Jul-26 10:26 237 6 22.2
2017-Jul-26 10:16 221 6 22.2
2017-Jul-26 10:11 229 6 22.2
2017-Jul-26 10:01 215 7 22.2
2017-Jul-26 09:56 233 7 21.7
2017-Jul-26 09:46 232 7 21.7
2017-Jul-26 09:36 194 5 21.7
2017-Jul-26 09:11 207 3 21.7
2017-Jul-26 09:06 225 5 21.1
2017-Jul-26 09:01 227 4 21.1
2017-Jul-26 08:51 263 3 21.7
2017-Jul-26 08:41 360 0 22.2
2017-Jul-26 08:36 326 0 21.7
2017-Jul-26 08:31 324 21.7
2017-Jul-26 08:26 318 0 21.1
2017-Jul-26 08:16 313 0 20.6
2017-Jul-26 08:06 326 0 20.6
2017-Jul-26 08:01 327 0 20.6
2017-Jul-26 07:56 327 0 20.0
2017-Jul-26 07:51 327 0 20.0
2017-Jul-26 07:41 327 1 20.6
2017-Jul-26 07:31 327 0 20.6
2017-Jul-26 07:26 326 0 20.6
2017-Jul-26 07:11 326 0 20.0
2017-Jul-26 07:06 327 1 20.0
2017-Jul-26 07:01 326 0 20.0
2017-Jul-26 06:56 327 0 20.0
2017-Jul-26 06:51 326 1 19.4
2017-Jul-26 06:46 326 0 20.0
2017-Jul-26 06:41 326 0 19.4
2017-Jul-26 06:21 326 1 18.9
2017-Jul-26 06:16 327 1 18.9
2017-Jul-26 06:01 326 0 18.3
2017-Jul-26 05:56 325 0 18.3
2017-Jul-26 05:51 326 0 18.3
2017-Jul-26 05:31 326 0 17.8
2017-Jul-26 05:26 326 0 17.8
2017-Jul-26 05:21 325 17.8
2017-Jul-26 05:16 323 17.8
2017-Jul-26 05:06 323 17.2
2017-Jul-26 05:01 323 0 17.8
2017-Jul-26 04:51 323 17.2
2017-Jul-26 04:46 323 17.2
2017-Jul-26 04:41 323 17.2
2017-Jul-26 04:31 323 0 16.7
2017-Jul-26 04:26 323 16.1
2017-Jul-26 04:21 323 16.1
2017-Jul-26 04:16 323 16.1
2017-Jul-26 04:11 322 16.1
2017-Jul-26 04:06 323 16.1
2017-Jul-26 04:01 323 0 15.6
2017-Jul-26 03:56 323 0 15.6
2017-Jul-26 03:46 323 16.1
2017-Jul-26 03:21 323 16.1
2017-Jul-26 03:16 323 16.7
2017-Jul-26 03:11 322 16.1
2017-Jul-26 02:51 323 0 16.7
2017-Jul-26 02:41 322 2 16.1
2017-Jul-26 02:36 323 1 16.1
2017-Jul-26 02:21 318 16.1
2017-Jul-26 02:16 318 0 16.1
2017-Jul-26 02:11 318 1 16.1
2017-Jul-26 02:01 323 2 16.1
2017-Jul-26 01:56 326 2 16.1
2017-Jul-26 01:51 360 2 16.1
2017-Jul-26 01:31 322 1 16.1
2017-Jul-26 01:26 322 2 16.1
2017-Jul-26 01:21 322 2 16.1
2017-Jul-26 01:16 360 2 16.7
2017-Jul-26 01:11 360 2 16.7
2017-Jul-26 01:06 322 2 16.7
2017-Jul-26 01:01 321 1 16.7
2017-Jul-26 00:56 360 2 16.1
2017-Jul-26 00:51 360 1 16.1
2017-Jul-26 00:46 360 1 16.7
2017-Jul-26 00:41 318 2 16.7
2017-Jul-26 00:36 318 2 16.1
2017-Jul-26 00:31 317 1 16.1
2017-Jul-26 00:26 360 0 16.7
2017-Jul-26 00:21 315 0 16.7
2017-Jul-26 00:06 311 1 16.1
2017-Jul-26 00:01 360 0 16.7
2017-Jul-25 23:51 302 1 17.2
2017-Jul-25 23:41 301 0 16.7
2017-Jul-25 23:01 291 3 16.7
2017-Jul-25 22:56 305 2 17.2
2017-Jul-25 22:51 360 2 16.7
2017-Jul-25 22:41 299 3 16.1
2017-Jul-25 22:16 314 0 16.7
2017-Jul-25 22:01 314 3 16.7
2017-Jul-25 21:56 316 2 16.7
2017-Jul-25 21:51 327 1 16.7
2017-Jul-25 21:46 299 0 16.7
2017-Jul-25 21:36 298 0 16.7
2017-Jul-25 21:26 276 2 17.8
2017-Jul-25 21:21 360 1 17.8
2017-Jul-25 21:16 272 0 17.8
2017-Jul-25 21:11 264 1 18.3
2017-Jul-25 21:06 268 2 18.3
2017-Jul-25 21:01 280 2 18.3
2017-Jul-25 20:56 286 2 17.8
2017-Jul-25 20:51 290 1 17.8
2017-Jul-25 20:46 294 2 17.2
2017-Jul-25 20:41 292 3 16.7
2017-Jul-25 20:31 360 2 17.2
2017-Jul-25 20:26 328 1 17.2
2017-Jul-25 20:11 327 2 17.2
2017-Jul-25 20:01 360 1 16.7
2017-Jul-25 19:56 329 0 17.2
2017-Jul-25 19:41 335 17.8
2017-Jul-25 19:36 335 17.8
2017-Jul-25 19:31 334 17.8
2017-Jul-25 19:26 335 17.8
2017-Jul-25 19:11 335 18.3
2017-Jul-25 19:01 335 1 18.3
2017-Jul-25 18:56 334 1 17.8
2017-Jul-25 18:46 335 0 17.8
2017-Jul-25 18:26 341 2 18.3
2017-Jul-25 18:21 355 1 18.3
2017-Jul-25 18:16 360 2 18.3
2017-Jul-25 18:11 360 2 18.3
2017-Jul-25 18:06 327 2 17.8
2017-Jul-25 18:01 319 2 18.3
2017-Jul-25 17:51 013 2 18.3
2017-Jul-25 17:46 013 3 18.3
2017-Jul-25 17:41 005 2 18.3
2017-Jul-25 17:36 360 2 18.3
2017-Jul-25 17:21 013 1 18.3
2017-Jul-25 17:16 013 3 18.3
2017-Jul-25 17:11 005 4 18.9
2017-Jul-25 17:06 307 4 19.4
2017-Jul-25 17:01 248 5 19.4
2017-Jul-25 16:51 030 18.3
2017-Jul-25 16:46 030 18.3
2017-Jul-25 16:41 030 18.3
2017-Jul-25 16:36 029 18.3
2017-Jul-25 16:31 030 18.3
2017-Jul-25 16:21 030 1 18.3
2017-Jul-25 16:16 032 1 18.3
2017-Jul-25 16:01 035 0 17.8
2017-Jul-25 15:56 035 0 17.8
2017-Jul-25 15:46 035 17.8
2017-Jul-25 15:41 035 17.8
2017-Jul-25 15:36 035 17.8
2017-Jul-25 15:31 035 1 17.8
2017-Jul-25 15:26 035 1 17.8
2017-Jul-25 15:21 013 0 17.8
2017-Jul-25 15:16 013 0 17.8
2017-Jul-25 15:11 010 0 17.8
2017-Jul-25 15:06 360 0 17.8
2017-Jul-25 14:46 360 5 18.3
2017-Jul-25 14:41 290 8 18.3
2017-Jul-25 14:26 360 8 17.8
2017-Jul-25 14:16 360 12 17.8
2017-Jul-25 14:01 360 13 18.3
2017-Jul-25 13:56 360 12 18.9
2017-Jul-25 13:51 360 11 19.4
2017-Jul-25 13:46 360 12 20.0
2017-Jul-25 13:41 255 11 21.1
2017-Jul-25 13:26 235 1 22.2
2017-Jul-25 13:21 257 0 22.2
2017-Jul-25 13:06 303 21.7
2017-Jul-25 12:56 303 3 22.2
2017-Jul-25 12:51 286 7 22.2
2017-Jul-25 12:46 273 9 22.2
2017-Jul-25 12:41 271 6 22.2
2017-Jul-25 12:36 267 3 22.8
2017-Jul-25 12:26 239 0 23.3
2017-Jul-25 12:21 246 23.3
2017-Jul-25 12:16 246 0 22.8
2017-Jul-25 12:11 246 22.8
2017-Jul-25 12:01 245 0 22.2
2017-Jul-25 11:51 244 2 22.2
2017-Jul-25 11:41 267 1 20.6
2017-Jul-25 11:36 360 2 19.4
2017-Jul-25 11:31 292 2 18.9
2017-Jul-25 11:26 289 1 18.9
2017-Jul-25 11:21 279 0 18.9
2017-Jul-25 11:16 281 1 18.9
2017-Jul-25 11:06 292 3 17.8
2017-Jul-25 11:01 360 4 17.8
2017-Jul-25 10:51 279 4 17.2
2017-Jul-25 10:46 279 3 16.7
2017-Jul-25 10:41 246 2 16.7
2017-Jul-25 10:36 272 4 16.1
2017-Jul-25 10:31 268 7 16.7
2017-Jul-25 10:21 278 6 17.8
2017-Jul-25 10:16 360 3 18.9
2017-Jul-25 10:11 253 1 19.4
2017-Jul-25 09:56 246 1 20.6
2017-Jul-25 09:51 242 0 21.1
2017-Jul-25 09:41 360 1 22.2
2017-Jul-25 09:31 243 3 22.2
2017-Jul-25 09:26 360 2 22.8
2017-Jul-25 09:21 192 2 22.8
2017-Jul-25 09:16 249 2 22.8
2017-Jul-25 09:11 242 2 22.8
2017-Jul-25 09:06 250 3 22.2
2017-Jul-25 09:01 360 4 21.7
2017-Jul-25 08:51 360 3 22.2
2017-Jul-25 08:46 360 2 22.8
2017-Jul-25 08:41 264 2 22.8
2017-Jul-25 08:31 360 1 22.2
2017-Jul-25 08:26 206 1 21.7
2017-Jul-25 08:21 242 2 21.7
2017-Jul-25 08:16 220 3 21.7
2017-Jul-25 08:06 360 1 21.7
2017-Jul-25 08:01 360 2 21.7
2017-Jul-25 07:56 360 3 21.7
2017-Jul-25 07:41 184 1 23.3
2017-Jul-25 07:36 186 1 22.8
2017-Jul-25 07:21 186 1 22.2
2017-Jul-25 07:16 186 1 22.2
2017-Jul-25 06:51 189 2 21.7
2017-Jul-25 06:46 194 1 21.7
2017-Jul-25 06:41 194 0 21.1
2017-Jul-25 06:36 194 0 20.6
2017-Jul-25 06:21 194 1 20.0
2017-Jul-25 06:01 195 1 20.6
2017-Jul-25 05:56 194 0 20.6
2017-Jul-25 05:51 195 0 20.0
2017-Jul-25 05:46 195 0 20.0
2017-Jul-25 05:41 195 0 20.0
2017-Jul-25 05:31 240 20.0
2017-Jul-25 05:26 244 20.0
2017-Jul-25 05:21 244 19.4
2017-Jul-25 05:16 244 19.4
2017-Jul-25 05:11 244 18.9
2017-Jul-25 05:06 244 18.9
2017-Jul-25 05:01 244 18.3
2017-Jul-25 04:56 244 18.3
2017-Jul-25 04:51 244 18.3
2017-Jul-25 04:31 244 18.9
2017-Jul-25 04:26 244 18.9
2017-Jul-25 04:21 244 18.9
2017-Jul-25 04:16 244 18.3
2017-Jul-25 04:11 244 18.3
2017-Jul-25 04:06 244 18.3